Date,TemperatureHighF,TemperatureAvgF,TemperatureLowF,DewpointHighF,DewpointAvgF,DewpointLowF,HumidityHigh,HumidityAvg,HumidityLow,PressureMaxIn,PressureMinIn,WindSpeedMaxMPH,WindSpeedAvgMPH,GustSpeedMaxMPH,PrecipitationSumIn
2013-1-1,41.2,23.1,14.4,22.1,11.8,5.1,77,62,45,30.26,30.12,0,0,0,0.00
2013-1-2,39.9,24.4,12.4,24.2,14.2,3.8,75,65,52,30.22,30.08,0,0,0,0.00
2013-1-3,46.0,31.3,22.3,28.9,20.7,15.9,77,65,50,30.37,30.21,0,0,0,0.00
2013-1-4,44.2,31.2,19.9,26.8,20.8,14.4,79,66,49,30.36,30.20,0,0,0,0.00
2013-1-5,43.9,35.3,28.2,32.1,25.6,19.3,72,67,60,30.20,30.03,0,0,0,0.00
2013-1-6,44.6,32.6,20.8,26.3,19.6,13.9,75,60,44,30.35,30.14,0,0,0,0.00
2013-1-7,49.6,36.3,24.4,27.5,22.2,16.2,71,57,41,30.25,30.00,0,0,0,0.00
2013-1-8,54.7,41.8,30.9,33.2,28.5,23.3,74,60,42,30.16,29.93,0,0,0,0.00
2013-1-9,54.0,41.7,30.7,35.8,29.2,22.8,74,62,48,30.37,30.16,0,0,0,0.00
2013-1-10,47.7,41.9,37.0,44.9,36.1,26.7,90,80,57,30.29,29.72,0,0,0,0.00
2013-1-11,58.5,51.7,46.4,46.7,44.0,36.2,90,76,53,29.74,29.57,0,0,0,0.00
2013-1-12,52.7,29.6,20.7,36.0,17.1,8.6,70,59,48,30.07,29.74,0,0,0,0.00
2013-1-13,32.2,21.3,11.8,13.8,7.2,1.7,65,55,44,30.30,30.01,0,0,0,0.00
2013-1-14,38.5,23.8,14.0,16.4,8.2,3.5,66,52,35,30.45,30.31,0,0,0,0.00
2013-1-15,40.8,26.7,17.1,18.9,9.9,5.5,63,50,36,30.34,30.14,0,0,0,0.00
2013-1-16,46.6,32.1,18.7,27.4,18.0,7.8,67,56,45,30.16,30.00,0,0,0,0.00
2013-1-17,55.0,39.7,27.7,32.7,26.3,21.7,79,60,40,30.43,30.16,0,0,0,0.00
2013-1-18,55.8,42.4,29.1,33.1,27.4,21.9,75,57,39,30.36,30.01,0,0,0,0.00
2013-1-19,63.3,48.6,38.5,36.2,29.5,23.7,67,49,32,30.22,29.96,0,0,0,0.00
2013-1-20,47.1,32.8,20.7,23.8,12.7,5.8,59,44,30,30.35,30.22,0,0,0,0.00
2013-1-21,28.4,20.3,16.5,14.6,5.2,1.1,63,52,41,30.40,30.31,0,0,0,0.00
2013-1-22,33.4,23.4,14.5,11.7,6.5,1.8,57,48,38,30.35,30.21,0,0,0,0.00
2013-1-23,54.1,32.4,16.0,28.4,15.4,5.2,63,50,36,30.36,30.12,0,0,0,0.00
2013-1-24,30.4,22.6,11.5,11.6,5.9,-1.2,58,49,38,30.43,30.12,0,0,0,0.00
2013-1-25,51.3,36.8,22.3,24.5,16.7,7.9,54,44,34,30.21,30.10,0,0,0,0.00
2013-1-26,56.3,43.6,33.3,28.6,23.3,17.7,59,46,32,30.24,30.05,0,0,0,0.00
2013-1-27,57.2,48.5,38.8,51.6,41.0,25.6,83,75,49,30.06,29.73,0,0,0,0.00
2013-1-28,73.9,63.6,56.3,57.7,54.5,51.4,85,73,52,29.84,29.65,0,0,0,0.00
2013-1-29,64.2,47.1,34.9,58.3,42.2,31.1,86,83,75,29.67,29.40,0,0,0,0.00
2013-1-30,35.2,26.9,21.0,31.5,20.3,13.3,86,76,68,29.95,29.49,0,0,0,0.00
2013-1-31,25.7,19.1,10.4,17.1,9.0,0.1,76,65,52,30.43,29.91,0,0,0,0.00
2013-2-1,29.1,19.6,8.2,13.6,7.0,-1.1,66,58,47,30.42,30.10,0,0,0,0.00
2013-2-2,52.7,38.5,24.1,33.9,25.0,13.3,67,59,45,30.18,30.06,0,0,0,0.00
2013-2-3,56.1,41.7,29.8,29.0,24.5,21.1,71,52,31,30.25,29.82,0,0,0,0.00
2013-2-4,59.2,42.2,26.2,34.3,26.0,17.4,69,53,38,29.96,29.76,0,0,0,0.00
2013-2-5,62.8,41.8,23.7,38.2,26.6,17.0,79,57,38,30.07,29.87,0,0,0,0.00
2013-2-6,61.2,47.9,33.1,41.0,32.0,22.7,70,55,39,30.07,29.86,0,0,0,0.00
2013-2-7,49.8,43.2,31.6,42.2,35.9,24.4,84,76,60,30.17,29.84,0,0,0,0.00
2013-2-8,51.1,35.7,28.4,33.7,25.9,22.7,80,68,49,30.30,30.17,0,0,0,0.00
2013-2-9,48.0,35.8,27.7,34.9,28.2,22.6,84,74,56,30.18,29.73,0,0,0,0.00
2013-2-10,53.4,43.5,35.2,44.4,32.5,22.1,90,67,47,29.90,29.48,0,0,0,0.00
2013-2-11,53.4,40.1,28.8,30.4,23.5,17.7,70,53,39,30.14,29.90,0,0,0,0.00
2013-2-12,43.5,34.9,28.4,26.9,21.7,17.0,67,59,48,30.14,29.93,0,0,0,0.00
2013-2-13,58.8,45.5,27.3,33.2,26.3,19.5,73,48,34,29.93,29.79,0,0,0,0.00
2013-2-14,52.3,41.8,32.7,34.0,26.1,20.6,67,54,44,30.14,29.82,0,0,0,0.00
2013-2-15,44.4,33.0,19.6,21.6,15.8,10.4,69,51,32,30.34,30.14,0,0,0,0.00
2013-2-16,38.5,29.8,20.5,24.2,18.5,13.2,75,63,51,30.27,30.03,0,0,0,0.00
2013-2-17,57.9,43.7,26.6,33.7,26.4,16.6,67,51,39,30.03,29.66,0,0,0,0.00
2013-2-18,51.3,41.8,26.6,42.6,29.7,14.8,77,63,47,30.06,29.52,0,0,0,0.00
2013-2-19,40.6,29.6,21.7,18.5,11.2,3.1,69,48,31,30.30,30.06,0,0,0,0.00
2013-2-20,26.4,22.1,17.8,11.3,6.2,1.3,60,50,44,30.34,30.12,0,0,0,0.00
2013-2-21,26.2,23.6,19.4,22.6,17.6,10.9,86,78,60,30.14,29.72,0,0,0,0.00
2013-2-22,41.7,26.0,16.3,30.6,17.8,8.3,86,72,52,30.04,29.75,0,0,0,0.00
2013-2-23,41.5,25.6,10.0,21.4,13.5,3.4,75,61,44,30.04,29.91,0,0,0,0.00
2013-2-24,53.4,35.4,20.1,29.7,21.9,13.2,75,59,40,29.99,29.86,0,0,0,0.00
2013-2-25,37.9,33.0,29.5,28.5,24.5,20.6,84,71,63,29.92,29.62,0,0,0,0.00
2013-2-26,37.0,31.9,29.3,30.3,27.0,24.8,87,82,74,29.83,29.54,0,0,0,0.00
2013-2-27,39.0,32.3,27.9,27.6,24.5,21.6,85,73,60,30.02,29.81,0,0,0,0.00
2013-2-28,34.9,30.3,27.3,24.7,22.3,20.4,76,72,65,30.17,30.01,0,0,0,0.00
2013-3-1,35.1,27.4,22.3,23.6,18.9,14.3,75,70,62,30.27,30.14,0,0,0,0.00
2013-3-2,48.4,30.7,20.7,26.7,17.9,13.7,75,60,40,30.31,30.14,0,0,0,0.00
2013-3-3,49.6,35.9,23.7,28.8,22.6,15.4,72,59,44,30.14,29.72,0,0,0,0.00
2013-3-4,55.9,41.2,33.4,35.4,28.5,24.4,78,61,46,29.94,29.65,0,0,0,0.00
2013-3-5,41.7,33.0,25.3,27.8,20.5,14.9,81,61,47,30.31,29.93,0,0,0,0.00
2013-3-6,51.1,33.8,23.5,26.1,18.4,13.8,67,55,36,30.38,30.24,0,0,0,0.00
2013-3-7,49.3,36.6,22.6,30.7,23.7,14.8,74,60,46,30.24,30.08,0,0,0,0.00
2013-3-8,59.5,46.9,35.4,41.1,33.7,25.0,70,60,45,30.17,29.95,0,0,0,0.00
2013-3-9,55.9,51.0,45.1,51.0,43.2,35.8,89,75,62,29.96,29.58,0,0,0,0.00
2013-3-10,52.5,38.9,26.1,48.8,35.1,20.7,89,86,80,29.88,29.53,0,0,0,0.00
2013-3-11,38.5,29.8,24.1,25.5,20.9,18.2,80,70,55,29.99,29.84,0,0,0,0.00
2013-3-12,53.8,38.3,29.8,33.7,23.3,18.4,72,56,37,30.30,29.97,0,0,0,0.00
2013-3-13,50.7,36.8,23.2,27.8,20.5,14.8,71,53,37,30.44,30.28,0,0,0,0.00
2013-3-14,73.9,53.5,33.4,46.0,33.5,20.3,61,48,34,30.28,30.03,0,0,0,0.00
2013-3-15,80.8,61.1,43.2,50.6,41.3,31.4,67,50,32,30.06,29.65,0,0,0,0.00
2013-3-16,59.5,44.7,36.9,42.0,32.5,24.9,74,62,52,30.04,29.68,0,0,0,0.00
2013-3-17,36.7,33.6,32.0,28.9,26.1,22.6,84,74,62,30.03,29.73,0,0,0,0.00
2013-3-18,57.2,42.7,33.3,38.8,28.6,16.8,85,61,35,30.03,29.72,0,0,0,0.00
2013-3-19,39.2,34.3,29.8,32.9,23.2,15.2,82,64,48,30.22,30.02,0,0,0,0.00
2013-3-20,43.9,34.4,23.2,28.8,17.1,9.6,83,52,34,30.35,30.09,0,0,0,0.00
2013-3-21,28.9,26.9,25.0,23.4,15.8,9.1,82,64,44,30.09,29.87,0,0,0,0.00
2013-3-22,33.4,30.9,28.2,28.2,25.9,23.4,83,81,78,29.98,29.90,0,0,0,0.00
2013-3-23,37.6,33.1,31.6,28.7,27.1,26.0,85,79,67,29.99,29.81,0,0,0,0.00
2013-3-24,36.7,29.5,22.1,27.5,22.9,14.3,87,77,64,30.05,29.78,0,0,0,0.00
2013-3-25,38.5,28.1,19.0,25.4,19.5,11.8,79,70,57,30.30,30.03,0,0,0,0.00
2013-3-26,49.3,32.8,20.5,28.5,19.8,14.1,77,60,41,30.37,30.25,0,0,0,0.00
2013-3-27,50.0,37.2,25.0,33.4,24.8,15.5,70,61,51,30.27,30.14,0,0,0,0.00
2013-3-28,69.6,51.9,36.3,43.4,35.6,27.2,71,55,37,30.18,30.09,0,0,0,0.00
2013-3-29,71.8,57.5,43.0,47.4,40.5,34.9,74,55,37,30.18,30.08,0,0,0,0.00
2013-3-30,57.7,56.0,54.5,49.2,48.6,47.8,79,76,72,29.90,29.88,0,0,0,0.00
2013-3-31,70.2,55.1,42.6,49.7,38.8,24.8,82,57,36,29.96,29.90,0,0,0,0.00
2013-4-1,50.5,39.6,30.0,25.4,19.2,11.7,68,45,28,30.25,29.96,0,0,0,0.00
2013-4-2,51.4,37.4,26.2,23.2,16.3,11.4,56,43,30,30.30,30.20,0,0,0,0.00
2013-4-3,49.5,38.6,27.5,23.8,18.5,14.3,60,45,35,30.32,30.19,0,0,0,0.00
2013-4-4,63.7,48.6,33.3,31.8,23.9,15.8,55,39,27,30.20,30.03,0,0,0,0.00
2013-4-5,67.6,52.5,35.2,40.4,32.1,22.9,65,47,35,30.15,29.84,0,0,0,0.00
2013-4-6,74.8,60.7,51.4,49.4,41.5,34.4,61,50,33,29.85,29.66,0,0,0,0.00
2013-4-7,67.3,57.7,46.2,51.0,43.6,34.9,84,60,47,29.86,29.65,0,0,0,0.00
2013-4-8,71.4,61.8,53.2,59.0,54.1,49.0,87,76,63,29.72,29.66,0,0,0,0.00
2013-4-9,69.4,63.5,51.3,58.7,55.3,45.3,82,75,68,29.76,29.62,0,0,0,0.00
2013-4-10,50.7,39.0,33.4,45.1,34.9,29.5,87,85,82,29.93,29.73,0,0,0,0.00
2013-4-11,41.2,34.3,30.6,29.5,26.3,22.4,86,73,60,29.81,29.70,0,0,0,0.00
2013-4-12,53.2,39.2,27.7,34.6,27.2,21.4,77,63,47,30.01,29.76,0,0,0,0.00
2013-4-13,62.4,49.2,33.3,43.1,34.7,24.5,73,59,42,30.03,29.69,0,0,0,0.00
2013-4-14,70.0,59.6,50.5,50.8,44.6,34.9,69,58,46,29.74,29.49,0,0,0,0.00
2013-4-15,52.9,46.6,42.6,39.7,33.2,29.5,72,60,47,29.97,29.73,0,0,0,0.00
2013-4-16,45.1,41.8,39.4,33.5,30.1,27.7,72,63,56,30.11,29.96,0,0,0,0.00
2013-4-17,51.3,45.7,41.9,47.8,41.3,33.5,89,85,72,30.04,29.62,0,0,0,0.00
2013-4-18,44.6,37.1,33.3,41.0,31.4,24.5,87,80,68,29.93,29.55,0,0,0,0.00
2013-4-19,53.6,41.3,28.6,31.6,25.6,21.0,74,55,38,30.07,29.89,0,0,0,0.00
2013-4-20,56.3,45.2,31.8,33.9,27.7,19.7,62,51,40,30.21,30.07,0,0,0,0.00
2013-4-21,63.3,53.4,43.2,42.6,36.7,29.5,66,54,41,30.19,30.07,0,0,0,0.00
2013-4-22,64.6,53.3,45.0,45.0,39.7,34.7,79,61,46,30.12,29.88,0,0,0,0.00
2013-4-23,44.8,34.8,31.8,38.0,29.6,27.2,83,81,75,30.15,29.98,0,0,0,0.00
2013-4-24,56.5,43.5,28.0,34.8,29.5,22.1,83,60,41,30.23,30.13,0,0,0,0.00
2013-4-25,70.7,53.7,35.8,42.7,35.7,27.6,74,53,35,30.28,30.12,0,0,0,0.00
2013-4-26,54.9,49.4,46.2,44.7,41.7,36.0,86,75,53,30.21,30.12,0,0,0,0.00
2013-4-27,55.2,49.8,45.5,47.4,44.3,41.7,87,81,74,30.17,29.99,0,0,0,0.00
2013-4-28,74.7,59.5,43.0,56.6,48.4,38.8,87,69,49,29.99,29.78,0,0,0,0.00
2013-4-29,82.0,68.8,54.9,62.5,55.8,47.8,80,65,49,29.81,29.64,0,0,0,0.00
2013-4-30,82.4,72.5,63.3,56.5,52.8,47.6,70,51,38,29.82,29.65,0,0,0,0.00
2013-5-1,84.9,66.5,41.9,61.2,50.6,34.7,76,58,44,30.15,29.81,0,0,0,0.00
2013-5-2,41.7,36.3,31.5,34.7,31.3,27.2,85,82,76,30.36,30.15,0,0,0,0.00
2013-5-3,39.2,36.3,33.3,33.1,31.0,29.1,85,81,72,30.28,29.89,0,0,0,0.00
2013-5-4,49.5,40.3,31.5,40.6,34.5,27.5,87,80,69,30.01,29.81,0,0,0,0.00
2013-5-5,59.4,48.6,43.2,50.2,43.2,38.3,88,82,69,30.10,29.99,0,0,0,0.00
2013-5-6,68.2,55.8,47.5,56.0,48.4,43.2,86,77,63,30.09,30.00,0,0,0,0.00
2013-5-7,78.3,67.6,50.7,57.8,49.2,44.9,81,54,38,30.06,29.96,0,0,0,0.00
2013-5-8,73.2,63.1,56.1,57.0,52.4,45.5,82,69,55,30.00,29.87,0,0,0,0.00
2013-5-9,79.2,65.5,56.8,60.8,55.5,51.4,86,71,52,29.93,29.83,0,0,0,0.00
2013-5-10,66.6,57.9,52.9,53.0,48.9,43.7,86,73,55,30.03,29.90,0,0,0,0.00
2013-5-11,70.5,59.3,49.8,48.2,39.0,26.5,75,50,31,30.22,30.03,0,0,0,0.00
2013-5-12,71.6,58.4,40.3,39.3,34.2,24.9,58,42,28,30.26,30.11,0,0,0,0.00
2013-5-13,77.4,63.6,47.3,54.3,46.4,36.9,69,55,40,30.14,29.93,0,0,0,0.00
2013-5-14,91.0,75.2,59.9,57.3,52.2,47.4,74,48,27,29.93,29.80,0,0,0,0.00
2013-5-15,87.6,74.2,64.6,64.6,58.0,50.9,77,58,43,29.90,29.81,0,0,0,0.00
2013-5-16,80.1,69.3,59.7,62.9,58.1,54.1,84,68,51,29.88,29.80,0,0,0,0.00
2013-5-17,77.0,66.3,58.1,61.8,57.4,53.5,87,74,57,29.93,29.84,0,0,0,0.00
2013-5-18,83.3,72.8,60.4,68.4,62.8,54.6,83,72,57,29.91,29.72,0,0,0,0.00
2013-5-19,81.9,69.5,60.6,68.1,60.7,54.9,87,74,61,29.84,29.57,0,0,0,0.00
2013-5-20,78.8,67.0,58.8,66.3,59.6,54.5,88,78,64,29.77,29.63,0,0,0,0.00
2013-5-21,78.4,66.9,54.9,59.0,52.1,46.9,82,60,44,29.79,29.68,0,0,0,0.00
2013-5-22,69.3,62.0,52.7,52.2,48.9,44.6,75,63,53,29.94,29.74,0,0,0,0.00
2013-5-23,74.5,62.3,50.7,55.4,49.5,43.8,79,64,49,30.20,29.94,0,0,0,0.00
2013-5-24,73.8,62.2,50.0,51.7,47.9,44.1,84,61,44,30.29,30.10,0,0,0,0.00
2013-5-25,83.1,70.2,59.4,64.1,56.3,45.4,74,62,51,30.14,29.99,0,0,0,0.00
2013-5-26,82.6,73.5,65.7,66.8,63.5,59.7,84,72,58,30.04,29.88,0,0,0,0.00
2013-5-27,79.7,69.9,61.9,68.8,61.9,57.2,88,76,65,29.92,29.66,0,0,0,0.00
2013-5-28,76.8,72.0,68.7,68.9,64.6,62.1,84,78,73,29.80,29.64,0,0,0,0.00
2013-5-29,79.0,72.5,62.4,66.0,63.0,56.7,82,72,62,29.81,29.64,0,0,0,0.00
2013-5-30,72.0,63.0,60.1,62.7,58.2,55.9,89,84,71,29.74,29.59,0,0,0,0.00
2013-5-31,78.6,67.2,57.4,68.1,60.9,54.0,90,81,62,29.75,29.65,0,0,0,0.00
2013-6-1,75.9,66.0,59.2,60.0,54.4,50.0,87,67,48,29.97,29.69,0,0,0,0.00
2013-6-2,66.9,58.9,53.2,52.6,48.0,43.5,77,67,54,30.08,29.96,0,0,0,0.00
2013-6-3,73.6,61.8,47.7,55.4,49.3,40.8,79,64,50,30.05,29.87,0,0,0,0.00
2013-6-4,74.3,64.8,60.3,63.6,57.2,53.0,84,76,65,29.96,29.83,0,0,0,0.00
2013-6-5,72.5,63.6,60.3,64.4,58.4,55.7,88,83,73,29.97,29.90,0,0,0,0.00
2013-6-6,79.5,67.8,56.7,59.4,54.8,49.2,87,65,46,29.96,29.90,0,0,0,0.00
2013-6-7,81.0,68.0,54.5,60.4,51.9,47.8,81,59,40,30.00,29.89,0,0,0,0.00
2013-6-8,79.5,68.2,54.3,60.1,54.3,47.1,78,62,48,29.93,29.75,0,0,0,0.00
2013-6-9,83.1,71.6,60.6,62.8,57.0,52.0,87,63,38,29.85,29.77,0,0,0,0.00
2013-6-10,90.3,75.2,59.4,64.2,58.4,51.4,79,58,34,29.89,29.82,0,0,0,0.00
2013-6-11,93.9,80.3,70.2,67.8,64.4,61.2,79,61,38,29.89,29.80,0,0,0,0.00
2013-6-12,95.2,84.0,73.8,71.4,67.6,59.6,75,59,44,29.92,29.78,0,0,0,0.00
2013-6-13,90.0,75.9,60.6,64.6,58.5,51.1,72,56,40,30.05,29.92,0,0,0,0.00
2013-6-14,89.2,77.2,65.3,73.0,65.5,58.1,81,68,53,30.01,29.86,0,0,0,0.00
2013-6-15,92.5,74.9,65.7,73.3,66.4,60.5,86,76,50,30.00,29.88,0,0,0,0.00
2013-6-16,85.5,74.0,65.1,73.0,66.7,60.8,89,79,62,29.96,29.88,0,0,0,0.00
2013-6-17,83.7,73.4,68.2,69.7,64.3,60.4,87,74,57,30.00,29.88,0,0,0,0.00
2013-6-18,92.1,74.7,63.7,71.7,63.4,58.4,84,70,43,30.01,29.96,0,0,0,0.00
2013-6-19,87.1,75.3,63.0,68.7,63.1,57.9,85,68,47,30.03,29.93,0,0,0,0.00
2013-6-20,88.2,78.2,67.5,72.4,67.1,61.4,82,69,58,30.00,29.88,0,0,0,0.00
2013-6-21,91.8,81.1,72.7,73.7,69.3,65.0,83,68,53,29.97,29.90,0,0,0,0.00
2013-6-22,91.4,81.0,71.8,71.7,67.6,64.1,78,65,48,29.99,29.85,0,0,0,0.00
2013-6-23,89.1,80.1,71.8,72.8,68.0,65.2,81,67,52,29.94,29.81,0,0,0,0.00
2013-6-24,90.9,80.8,73.6,70.5,66.5,64.2,76,63,47,29.95,29.80,0,0,0,0.00
2013-6-25,88.5,79.1,72.3,71.4,67.4,64.7,83,68,54,29.89,29.72,0,0,0,0.00
2013-6-26,100.8,86.2,72.7,75.9,67.6,62.3,81,57,31,29.89,29.72,0,0,0,0.00
2013-6-27,90.7,79.5,70.2,76.0,66.0,60.7,80,64,53,30.00,29.82,0,0,0,0.00
2013-6-28,91.2,78.3,67.3,72.9,62.8,54.3,87,62,39,29.95,29.86,0,0,0,0.00
2013-6-29,87.1,75.0,64.2,62.6,56.2,53.0,69,54,36,29.88,29.80,0,0,0,0.00
2013-6-30,83.8,71.7,59.2,61.0,55.3,51.1,77,58,41,30.03,29.88,0,0,0,0.00
2013-7-1,86.4,72.6,57.6,60.1,52.6,49.0,75,52,33,30.10,30.02,0,0,0,0.00
2013-7-2,88.2,72.9,57.6,58.7,52.7,48.7,74,52,32,30.12,30.04,0,0,0,0.00
2013-7-3,91.8,73.0,61.5,59.4,54.0,51.0,70,54,30,30.08,29.96,0,0,0,0.00
2013-7-4,88.9,74.6,60.1,60.8,54.6,49.7,70,52,34,30.04,29.93,0,0,0,0.00
2013-7-5,90.5,77.6,63.7,63.8,58.2,53.5,72,53,35,29.99,29.88,0,0,0,0.00
2013-7-6,88.2,75.3,67.3,65.7,60.5,56.4,72,61,47,29.98,29.90,0,0,0,0.00
2013-7-7,91.8,79.9,70.9,68.2,64.2,61.2,74,60,44,29.98,29.91,0,0,0,0.00
2013-7-8,96.1,82.7,72.7,70.5,65.3,61.1,69,57,40,30.03,29.96,0,0,0,0.00
2013-7-9,99.7,86.0,74.8,72.9,68.7,64.7,73,58,41,30.00,29.84,0,0,0,0.00
2013-7-10,95.2,85.6,75.9,73.4,65.5,60.4,64,52,34,30.03,29.89,0,0,0,0.00
2013-7-11,91.8,79.2,66.9,62.4,58.5,55.4,69,51,34,30.08,29.97,0,0,0,0.00
2013-7-12,90.9,78.2,65.7,66.5,60.5,55.5,72,56,44,30.04,29.95,0,0,0,0.00
2013-7-13,93.6,79.0,67.8,67.7,60.6,53.8,62,54,42,30.03,29.94,0,0,0,0.00
2013-7-14,88.5,77.8,64.8,61.4,58.6,56.0,76,54,35,30.10,29.97,0,0,0,0.00
2013-7-15,91.8,80.2,67.8,68.5,63.5,56.6,79,58,44,30.17,30.08,0,0,0,0.00
2013-7-16,96.4,83.2,70.0,71.6,65.4,62.6,79,57,38,30.25,30.16,0,0,0,0.00
2013-7-17,94.8,83.0,72.0,71.1,66.9,63.8,78,60,42,30.31,30.17,0,0,0,0.00
2013-7-18,97.9,85.6,72.9,71.3,65.7,62.8,74,54,36,30.19,29.99,0,0,0,0.00
2013-7-19,101.5,86.9,71.8,69.2,64.5,61.2,71,50,32,30.00,29.85,0,0,0,0.00
2013-7-20,92.5,77.8,71.1,70.9,66.4,63.3,83,69,46,29.94,29.84,0,0,0,0.00
2013-7-21,89.4,76.8,68.2,70.1,66.2,63.5,87,71,49,29.93,29.80,0,0,0,0.00
2013-7-22,95.4,81.2,70.0,73.8,67.3,64.0,86,65,43,29.85,29.77,0,0,0,0.00
2013-7-23,88.2,79.2,71.4,71.4,67.2,62.4,84,68,52,29.92,29.81,0,0,0,0.00
2013-7-24,92.5,79.3,66.0,64.5,59.2,56.0,71,52,34,30.03,29.91,0,0,0,0.00
2013-7-25,88.9,74.5,64.6,65.7,60.7,55.1,78,63,42,30.09,29.99,0,0,0,0.00
2013-7-26,89.4,75.9,66.4,70.2,62.4,50.8,81,65,42,30.04,29.96,0,0,0,0.00
2013-7-27,83.7,68.8,57.6,56.9,52.8,49.2,76,58,37,30.10,29.97,0,0,0,0.00
2013-7-28,76.3,67.0,59.2,55.7,52.6,50.6,78,61,42,30.06,30.00,0,0,0,0.00
2013-7-29,69.3,64.7,59.4,66.2,59.2,52.4,90,82,68,30.07,29.93,0,0,0,0.00
2013-7-30,84.6,74.7,69.1,73.3,68.6,65.8,91,82,68,30.06,29.95,0,0,0,0.00
2013-7-31,89.4,78.0,69.4,69.8,65.8,61.6,87,68,48,30.11,30.02,0,0,0,0.00
2013-8-1,92.5,78.4,65.5,69.8,63.9,60.0,84,63,41,30.10,29.95,0,0,0,0.00
2013-8-2,89.8,77.0,65.1,73.0,67.3,60.2,88,73,57,29.98,29.84,0,0,0,0.00
2013-8-3,86.4,76.7,70.3,71.5,67.9,65.4,87,75,60,30.11,29.89,0,0,0,0.00
2013-8-4,74.3,69.6,64.4,68.0,64.5,60.0,89,84,74,30.12,30.01,0,0,0,0.00
2013-8-5,86.4,76.0,67.5,73.5,68.9,64.4,90,79,64,30.03,29.83,0,0,0,0.00
2013-8-6,88.0,78.5,68.9,73.5,69.8,64.9,88,75,58,29.88,29.79,0,0,0,0.00
2013-8-7,86.5,77.1,69.1,74.1,69.0,63.5,88,77,65,29.95,29.78,0,0,0,0.00
2013-8-8,76.3,70.7,67.1,65.1,62.7,60.5,81,76,67,30.00,29.85,0,0,0,0.00
2013-8-9,74.8,70.2,66.4,67.3,62.8,60.3,82,78,66,30.10,29.97,0,0,0,0.00
2013-8-10,89.1,75.0,62.6,67.7,61.3,57.4,88,65,45,30.17,30.07,0,0,0,0.00
2013-8-11,89.8,76.0,63.0,67.8,62.0,54.9,76,63,47,30.12,30.00,0,0,0,0.00
2013-8-12,86.4,75.7,66.0,70.9,65.8,61.1,89,73,56,30.03,29.95,0,0,0,0.00
2013-8-13,87.6,75.1,67.1,63.9,60.7,56.9,83,63,40,30.11,30.00,0,0,0,0.00
2013-8-14,82.4,70.5,60.8,62.5,57.2,52.6,81,64,46,30.18,30.07,0,0,0,0.00
2013-8-15,79.9,67.0,60.6,59.6,54.9,52.1,75,66,48,30.11,29.99,0,0,0,0.00
2013-8-16,82.2,69.5,59.7,59.4,55.0,51.9,78,62,43,30.15,30.06,0,0,0,0.00
2013-8-17,82.8,70.2,57.4,59.1,53.6,49.3,76,58,41,30.18,30.08,0,0,0,0.00
2013-8-18,86.7,72.1,59.4,63.3,57.0,50.8,77,60,43,30.16,30.05,0,0,0,0.00
2013-8-19,87.1,74.2,61.7,65.5,61.0,55.8,83,65,46,30.10,29.99,0,0,0,0.00
2013-8-20,89.8,76.9,64.8,67.1,63.0,58.4,81,64,44,30.05,29.98,0,0,0,0.00
2013-8-21,91.2,78.4,65.8,68.6,64.3,58.8,79,64,46,30.07,29.99,0,0,0,0.00
2013-8-22,90.5,80.4,68.4,69.9,66.5,62.3,82,64,48,30.09,30.01,0,0,0,0.00
2013-8-23,93.9,80.7,70.0,71.4,66.1,63.7,82,63,42,30.09,30.00,0,0,0,0.00
2013-8-24,91.6,80.1,32.0,99.9,67.6,24.0,82,66,50,30.13,30.03,0,0,0,0.00
2013-8-25,94.8,81.3,70.0,73.6,67.9,63.5,82,65,48,30.19,30.10,0,0,0,0.00
2013-8-26,95.7,82.1,70.0,71.7,67.9,64.1,84,64,44,30.16,30.04,0,0,0,0.00
2013-8-27,95.2,81.7,68.9,68.3,65.0,60.3,79,59,40,30.07,29.97,0,0,0,0.00
2013-8-28,97.3,81.5,68.9,71.9,66.0,60.5,81,61,42,30.05,29.99,0,0,0,0.00
2013-8-29,97.2,83.3,72.0,72.1,68.1,65.0,80,62,43,30.03,29.94,0,0,0,0.00
2013-8-30,102.4,86.4,68.9,72.9,67.7,59.9,76,56,33,29.97,29.83,0,0,0,0.00
2013-8-31,95.2,83.3,74.8,74.7,68.7,65.1,74,62,47,29.87,29.79,0,0,0,0.00
2013-9-1,94.6,78.3,68.2,72.8,65.4,58.1,85,66,47,29.96,29.76,0,0,0,0.00
2013-9-2,90.0,74.7,61.7,65.6,59.1,54.9,81,60,42,30.05,29.94,0,0,0,0.00
2013-9-3,92.5,75.3,60.3,62.3,56.3,52.3,77,54,33,30.10,30.01,0,0,0,0.00
2013-9-4,94.6,75.8,61.9,63.8,57.2,51.3,70,54,32,30.16,30.05,0,0,0,0.00
2013-9-5,96.4,77.8,63.0,67.7,59.5,54.2,74,55,35,30.19,30.09,0,0,0,0.00
2013-9-6,93.0,78.4,66.0,65.9,61.3,56.6,74,57,40,30.12,29.98,0,0,0,0.00
2013-9-7,98.8,82.1,68.2,68.9,64.2,59.4,76,57,37,29.99,29.88,0,0,0,0.00
2013-9-8,104.7,86.7,73.6,70.8,65.5,61.8,68,52,31,29.91,29.82,0,0,0,0.00
2013-9-9,97.5,84.0,73.6,68.2,62.3,58.1,66,50,33,29.95,29.87,0,0,0,0.00
2013-9-10,96.3,81.8,70.0,67.8,62.5,59.3,71,54,36,30.06,29.94,0,0,0,0.00
2013-9-11,99.0,82.5,68.4,65.4,60.2,56.6,70,49,31,30.12,30.01,0,0,0,0.00
2013-9-12,88.2,76.8,70.5,70.0,63.4,54.7,83,65,48,30.14,30.05,0,0,0,0.00
2013-9-14,80.8,73.5,64.8,52.8,50.6,49.3,59,45,36,30.09,29.94,0,0,0,0.00
2013-9-15,88.3,72.4,61.7,64.9,57.3,49.9,76,60,44,30.12,29.92,0,0,0,0.00
2013-9-16,65.3,60.1,58.3,57.9,54.7,53.5,87,83,76,30.23,30.11,0,0,0,0.00
2013-9-17,71.1,63.5,59.0,65.3,59.6,55.1,91,87,81,30.17,29.95,0,0,0,0.00
2013-9-18,88.2,75.0,64.8,70.6,65.4,61.4,90,74,53,29.97,29.81,0,0,0,0.00
2013-9-19,93.6,78.0,66.4,69.8,64.8,60.5,83,66,42,29.92,29.74,0,0,0,0.00
2013-9-20,72.0,63.8,56.7,61.4,51.4,46.2,84,65,47,30.05,29.90,0,0,0,0.00
2013-9-21,82.2,65.3,50.2,54.1,47.8,43.6,79,56,33,30.04,29.91,0,0,0,0.00
2013-9-22,79.5,65.1,52.5,53.3,48.0,44.1,74,56,38,29.98,29.85,0,0,0,0.00
2013-9-23,77.4,64.9,52.2,54.0,49.7,45.0,78,60,41,29.92,29.77,0,0,0,0.00
2013-9-24,64.4,60.8,58.8,54.1,51.8,50.6,78,72,63,29.85,29.75,0,0,0,0.00
2013-9-25,83.5,66.2,54.5,64.8,56.3,49.9,86,72,50,29.90,29.80,0,0,0,0.00
2013-9-26,85.8,71.3,57.6,61.6,57.0,52.4,84,63,40,29.91,29.82,0,0,0,0.00
2013-9-27,87.4,74.6,64.8,63.6,58.9,56.4,75,59,41,29.96,29.85,0,0,0,0.00
2013-9-28,70.7,63.9,54.5,61.5,55.5,48.5,87,74,64,30.07,29.80,0,0,0,0.00
2013-9-29,81.5,62.9,46.9,56.6,48.2,41.6,86,62,37,30.09,29.94,0,0,0,0.00
2013-9-30,79.9,64.9,50.0,58.4,51.6,43.4,81,64,45,29.94,29.81,0,0,0,0.00
2013-10-1,83.7,69.5,57.9,65.3,58.8,51.4,90,70,53,29.96,29.83,0,0,0,0.00
2013-10-2,84.4,70.8,62.2,69.5,62.4,56.2,89,76,56,30.01,29.86,0,0,0,0.00
2013-10-3,83.1,72.6,65.7,69.0,64.1,58.8,87,76,58,29.88,29.73,0,0,0,0.00
2013-10-4,85.8,74.6,65.3,69.3,64.4,58.3,87,72,50,29.90,29.73,0,0,0,0.00
2013-10-5,65.1,55.5,47.1,57.7,39.8,33.7,77,57,41,30.03,29.89,0,0,0,0.00
2013-10-6,63.7,51.7,41.4,44.2,37.8,30.9,69,60,47,29.99,29.84,0,0,0,0.00
2013-10-7,77.9,59.8,43.5,48.8,41.7,33.8,70,53,35,30.13,29.98,0,0,0,0.00
2013-10-8,75.7,61.3,48.0,50.4,44.3,39.1,73,56,35,30.09,29.99,0,0,0,0.00
2013-10-9,77.2,62.4,49.6,51.0,45.7,41.7,75,56,36,30.08,29.99,0,0,0,0.00
2013-10-10,79.2,64.4,50.4,56.9,49.3,42.5,77,59,43,30.05,29.85,0,0,0,0.00
2013-10-11,74.3,64.8,55.8,62.0,55.7,49.0,81,73,65,29.86,29.76,0,0,0,0.00
2013-10-12,75.4,61.5,48.4,53.7,44.3,37.6,81,55,37,30.23,29.83,0,0,0,0.00
2013-10-13,75.7,59.9,47.5,43.8,37.8,33.6,62,46,29,30.37,30.22,0,0,0,0.00
2013-10-14,67.3,57.1,51.4,55.0,43.8,33.3,86,63,47,30.25,29.86,0,0,0,0.00
2013-10-15,64.9,55.6,45.0,54.1,43.6,34.1,87,66,47,30.06,29.85,0,0,0,0.00
2013-10-16,65.8,51.8,41.4,44.6,38.0,32.3,74,60,45,30.10,29.96,0,0,0,0.00
2013-10-17,68.7,54.6,41.4,46.4,39.5,34.7,77,59,39,30.01,29.88,0,0,0,0.00
2013-10-18,51.3,41.0,35.4,39.4,32.7,29.9,80,72,61,30.11,30.00,0,0,0,0.00
2013-10-19,63.3,46.7,31.8,42.6,34.2,27.2,85,64,40,30.08,29.88,0,0,0,0.00
2013-10-20,71.4,56.4,43.9,46.0,40.0,34.7,70,56,38,29.92,29.78,0,0,0,0.00
2013-10-21,61.0,49.9,41.2,40.0,33.9,29.1,69,55,39,30.10,29.92,0,0,0,0.00
2013-10-22,64.2,50.2,39.7,45.9,36.3,29.3,72,60,46,30.08,29.90,0,0,0,0.00
2013-10-23,51.6,42.9,35.4,34.8,31.1,27.1,75,63,50,30.15,30.01,0,0,0,0.00
2013-10-24,57.6,45.1,37.6,34.7,29.3,22.9,74,56,37,30.40,30.12,0,0,0,0.00
2013-10-25,57.4,44.9,31.3,31.7,25.9,21.2,69,49,32,30.43,30.13,0,0,0,0.00
2013-10-26,70.5,52.0,42.1,46.0,34.2,27.1,73,52,35,30.15,30.05,0,0,0,0.00
2013-10-27,65.3,48.8,32.5,37.2,29.8,23.1,71,50,33,30.14,29.92,0,0,0,0.00
2013-10-28,64.8,50.8,40.8,49.0,38.8,26.6,79,64,51,30.11,29.96,0,0,0,0.00
2013-10-29,62.8,55.7,50.7,60.1,51.9,44.4,91,87,79,30.09,29.91,0,0,0,0.00
2013-10-30,66.4,63.1,59.4,62.7,59.8,56.4,91,89,79,29.95,29.71,0,0,0,0.00
2013-10-31,59.9,51.2,46.0,57.0,46.1,39.6,90,83,72,29.71,29.55,0,0,0,0.00
2013-11-1,65.1,51.2,40.8,46.6,39.1,34.5,80,65,47,29.97,29.66,0,0,0,0.00
2013-11-2,61.9,48.2,37.9,42.9,34.3,29.1,78,60,43,30.18,29.97,0,0,0,0.00
2013-11-3,58.3,48.2,36.3,38.2,33.8,27.8,73,58,44,30.14,29.88,0,0,0,0.00
2013-11-4,60.1,53.4,47.5,47.4,43.5,37.4,79,69,59,30.08,29.86,0,0,0,0.00
2013-11-5,57.6,54.2,46.6,54.6,50.6,42.3,90,88,79,30.08,29.84,0,0,0,0.00
2013-11-6,46.2,38.7,34.0,42.3,32.6,27.8,86,79,69,30.30,29.91,0,0,0,0.00
2013-11-7,63.0,45.8,31.3,43.4,32.4,26.7,84,61,43,30.37,30.29,0,0,0,0.00
2013-11-8,61.9,49.6,35.6,40.0,32.3,24.5,68,52,37,30.30,29.86,0,0,0,0.00
2013-11-9,72.0,55.2,41.4,45.5,35.7,29.3,71,49,34,30.27,29.96,0,0,0,0.00
2013-11-10,63.3,51.7,39.9,35.4,32.5,27.9,62,49,34,30.38,30.18,0,0,0,0.00
2013-11-11,63.5,46.4,26.8,50.5,35.6,15.5,76,66,54,30.58,30.14,0,0,0,0.00
2013-11-12,43.7,30.3,17.2,21.1,13.6,8.5,69,51,38,30.81,30.58,0,0,0,0.00
2013-11-13,48.4,35.1,21.4,21.3,16.2,8.9,62,47,30,30.63,30.14,0,0,0,0.00
2013-11-14,53.8,42.4,31.3,29.8,25.1,19.8,64,51,38,30.15,29.93,0,0,0,0.00
2013-11-15,59.4,48.8,40.8,41.3,35.8,27.1,78,61,50,29.95,29.72,0,0,0,0.00
2013-11-16,66.6,59.4,47.8,56.5,52.2,41.6,85,77,66,29.73,29.43,0,0,0,0.00
2013-11-17,70.7,58.9,43.7,57.0,40.0,24.6,80,53,24,30.06,29.35,0,0,0,0.00
2013-11-18,65.1,49.0,34.7,40.0,29.9,21.9,74,50,33,30.27,30.05,0,0,0,0.00
2013-11-19,59.5,47.7,38.1,31.0,26.3,22.9,57,44,30,30.22,29.96,0,0,0,0.00
2013-11-20,48.2,44.9,39.0,36.0,29.8,20.5,71,57,35,29.96,29.83,0,0,0,0.00
2013-11-21,48.9,40.5,27.0,42.3,33.7,22.2,83,77,64,30.38,29.93,0,0,0,0.00
2013-11-22,32.7,26.4,23.2,24.7,19.8,16.1,82,76,70,30.57,30.37,0,0,0,0.00
2013-11-23,31.6,24.1,16.7,18.1,12.3,4.8,75,61,45,30.72,30.55,0,0,0,0.00
2013-11-24,28.0,20.7,12.6,12.8,7.8,3.0,66,57,48,30.69,30.28,0,0,0,0.00
2013-11-25,37.0,30.7,25.2,21.0,17.1,12.0,67,57,51,30.28,30.14,0,0,0,0.00
2013-11-26,40.3,29.7,19.8,26.3,17.8,7.0,77,61,45,30.36,30.12,0,0,0,0.00
2013-11-27,42.8,26.9,14.0,19.1,10.4,4.4,66,51,35,30.39,30.13,0,0,0,0.00
2013-11-28,52.5,34.7,24.3,27.6,17.7,11.2,61,50,37,30.43,30.11,0,0,0,0.00
2013-11-29,51.3,36.9,22.8,30.1,21.1,13.3,68,54,40,30.43,30.21,0,0,0,0.00
2013-11-30,57.6,44.0,32.9,37.5,29.8,20.5,70,58,46,30.21,30.04,0,0,0,0.00
2013-12-1,62.1,46.5,31.3,42.4,33.6,24.6,77,62,46,30.09,29.85,0,0,0,0.00
2013-12-2,52.0,42.1,33.6,42.9,35.8,28.7,88,79,68,29.85,29.59,0,0,0,0.00
2013-12-3,57.6,44.9,37.6,46.3,38.9,33.8,90,80,63,29.60,29.52,0,0,0,0.00
2013-12-4,44.1,33.0,21.7,39.2,27.4,12.8,86,80,68,30.01,29.49,0,0,0,0.00
2013-12-5,21.7,17.7,15.1,12.8,7.5,4.7,74,64,59,30.33,30.01,0,0,0,0.00
2013-12-6,19.8,14.9,9.0,4.7,0.8,-3.2,59,53,45,30.58,30.31,0,0,0,0.00
2013-12-7,30.9,16.7,5.2,10.2,1.3,-4.7,65,51,39,30.65,30.31,0,0,0,0.00
2013-12-8,23.4,20.0,16.9,16.9,11.1,3.0,78,68,51,30.31,29.93,0,0,0,0.00
2013-12-9,19.6,14.1,10.2,13.8,5.0,-0.6,78,67,57,30.36,30.13,0,0,0,0.00
2013-12-10,44.2,24.5,9.3,21.4,10.5,-0.1,68,56,39,30.30,30.14,0,0,0,0.00
2013-12-11,37.0,23.2,13.1,18.8,9.1,-0.5,74,56,40,30.56,30.18,0,0,0,0.00
2013-12-12,45.3,28.7,11.3,20.5,12.4,-0.4,68,51,36,30.55,30.12,0,0,0,0.00
2013-12-13,34.7,31.5,25.0,30.0,25.8,16.9,85,80,68,30.12,29.82,0,0,0,0.00
2013-12-14,34.2,34.2,34.2,29.5,29.5,29.4,83,83,83,29.86,29.86,0,0,0,0.00